Printer-friendly version

IAU Minor Planet Center

Minor Planet Center

MPEC 2002-C53 : 2002 CC14

The following Minor Planet Electronic Circular may be linked-to from your own Web pages, but must not otherwise be redistributed electronically.


Read MPEC 2002-C52 Read MPEC 2002-C54


M.P.E.C. 2002-C53                                Issued 2002 Feb.  9, 15:43 UT

     The Minor Planet Electronic Circulars contain information on unusual
         minor planets and routine data on comets.  They are published
   on behalf of Commission 20 of the International Astronomical Union by the
          Minor Planet Center, Smithsonian Astrophysical Observatory,
                          Cambridge, MA 02138, U.S.A.

             Prepared using the Tamkin Foundation Computer Network

                              MPC@CFA.HARVARD.EDU
          URL http://cfa-www.harvard.edu/iau/mpc.html  ISSN 1523-6714

                                   2002 CC14

Observations:
     K02C14C* C2002 02 07.24196 08 35 02.15 +21 16 27.1          17.5        704
     K02C14C  C2002 02 07.25649 08 34 43.49 +21 24 04.6          18.0        704
     K02C14C  C2002 02 07.27079 08 34 25.21 +21 31 30.6          17.7        704
     K02C14C  C2002 02 07.28750 08 34 04.05 +21 40 05.8          17.8        704
     K02C14C  C2002 02 08.03778 08 21 52.15 +26 57 28.8          17.1 R      946
     K02C14C  C2002 02 08.03931 08 21 50.70 +26 58 01.0          17.3 R      946
     K02C14C  C2002 02 08.03975 08 21 50.29 +26 58 08.8          17.2 R      946
     K02C14C  C2002 02 08.04146 08 21 48.65 +26 58 44.8          17.2 R      946
     K02C14C  C2002 02 08.23175 08 19 26.90 +28 03 07.8          18.6        704
     K02C14C  C2002 02 08.23188 08 19 26.69 +28 03 10.8          18.5        704
     K02C14C  C2002 02 08.23200 08 19 26.57 +28 03 12.6          19.0        704
     K02C14C  C2002 02 08.23332 08 19 25.28 +28 03 39.1          18.7        704
     K02C14C  C2002 02 08.24601 08 19 14.00 +28 07 40.3          18.4        704
     K02C14C  C2002 02 08.24613 08 19 13.83 +28 07 44.1          18.3        704
     K02C14C  C2002 02 08.24625 08 19 13.75 +28 07 45.6          18.4        704
     K02C14C  C2002 02 08.24786 08 19 12.18 +28 08 16.2          18.0        704
     K02C14C  C2002 02 08.26032 08 19 01.16 +28 12 12.2          18.5        704
     K02C14C  C2002 02 08.26044 08 19 00.91 +28 12 16.1          18.4        704
     K02C14C  C2002 02 08.26056 08 19 00.87 +28 12 17.1          18.7        704
     K02C14C  C2002 02 08.26268 08 18 58.85 +28 12 58.4          18.7        704
     K02C14C  C2002 02 08.27470 08 18 48.15 +28 16 43.8          18.6        704
     K02C14C  C2002 02 08.27482 08 18 48.16 +28 16 45.8          19.2        704
     K02C14C  C2002 02 08.28910 08 18 35.40 +28 21 11.5          18.4        704
     K02C14C  C2002 02 08.28922 08 18 35.31 +28 21 12.8          18.5        704
     K02C14C  C2002 02 08.29165 08 18 32.98 +28 21 59.4          18.6        704
     K02C14C  C2002 02 08.30577 08 18 20.66 +28 26 17.4          18.2        704
     K02C14C  C2002 02 08.32012 08 18 08.08 +28 30 38.0          18.9        704
     K02C14C  C2002 02 08.33447 08 17 55.69 +28 34 56.5          18.3        704
     K02C14C  C2002 02 08.36340 08 17 31.09 +28 43 28.2          18.5        704
     K02C14C  C2002 02 08.82488 08 12 35.66 +30 48 18.4                      620
     K02C14C  C2002 02 08.82606 08 12 34.81 +30 48 35.9                      620
     K02C14C  C2002 02 08.82940 08 12 32.41 +30 49 26.8                      620
     K02C14C  C2002 02 08.84123 08 12 23.94 +30 52 26.2                      620
     K02C14C  C2002 02 08.85373 08 12 15.36 +30 55 25.9          18.0 R      946
     K02C14C  C2002 02 08.85424 08 12 09.92 +30 55 15.9          18.4 R      118
     K02C14C  C2002 02 08.85529 08 12 09.24 +30 55 32.5                      118
     K02C14C  C2002 02 08.85644 08 12 13.39 +30 56 06.5          18.0 R      946
     K02C14C  C2002 02 08.86325 08 12 03.76 +30 57 25.8                      118
     K02C14C  C2002 02 08.86429 08 12 03.05 +30 57 40.6                      118
     K02C14C  C2002 02 09.04491 08 10 02.05 +31 39 18.7          18.6 R      966
     K02C14C  C2002 02 09.04763 08 10 00.21 +31 39 55.9          18.4 R      966
     K02C14C  C2002 02 09.19076 08 08 50.78 +32 12 36.2          19.1 R      854
     K02C14C  C2002 02 09.19163 08 08 49.99 +32 12 46.6          19.2 R      854
     K02C14C  C2002 02 09.19248 08 08 49.66 +32 12 57.2          19.1 R      854
     K02C14C  C2002 02 09.19334 08 08 48.89 +32 13 06.9          19.0 R      854

Observer details:
118 Modra.  Observers J. Toth, S. Gajdos.  0.6-m f/5.5 reflector + CCD.
620 Observatorio Astronomico de Mallorca.  Observers S. Sanchez, J.
    Rodriguez.  0.4-m f/4.5 reflector + CCD.
704 Lincoln Laboratory ETS, New Mexico.  Observers M. Blythe, F. Shelly,
    M. Bezpalko, R. Huber, L. Manguso, S. Adams, J. Piscitelli.  Measurers
    J. Stuart, R. Sayer, J. B. Evans, H. Viggh.  1.0-m f/2.15 reflector + CCD.
854 Sabino Canyon Observatory, Tucson.  Observer J. E. McGaha.  0.30-m f/6.1
    Schmidt-Cassegrain + CCD.
946 Ametlla de Mar.  Observer J. Nomen.  0.40-m f/2.0 Schmidt + CCD.
966 Church Stretton.  Observer S. P. Laurie.  0.35-m f/11 Schmidt-Cassegrain
    + CCD.

Orbital elements:
2002 CC14
Epoch 2001 Oct. 18.0 TT = JDT 2452200.5                 MPC
M 316.56151              (2000.0)            P               Q
n   1.32624556     Peri.  218.11153     +0.98744005     +0.05946171
a   0.8204525      Node   137.75093     -0.02280250     +0.97041113
e   0.4035384      Incl.   12.57451     -0.15633998     +0.23402255
P   0.74           H   25.0           G   0.15           U   8
Residuals in seconds of arc
020207 704  0.2-  0.2+    020208 704  1.5-  0.3-    020208 620  0.3-  0.3-
020207 704  0.2-  0.1+    020208 704  1.0+  0.6-    020208 620  0.4-  0.1-
020207 704  0.3-  0.2+    020208 704  0.9-  1.0+    020208 620  0.1-  0.4+
020207 704  0.5+  0.1-    020208 704  0.0   0.3-    020208 946  1.2+  0.5+
020208 946  2.0+  1.4-    020208 704  1.6-  1.0+    020208 118 (3.2-  2.4+)
020208 946  1.8+  0.8-    020208 704  0.8-  0.8+    020208 118 (2.3-  3.5+)
020208 946 (1.9+  2.1-)   020208 704  0.7+  0.5+    020208 946  0.8+  0.6+
020208 946  1.4+  1.4-    020208 704  0.0   0.7+    020208 118  0.8+  0.3-
020208 704  0.7+  0.1+    020208 704  0.2+  0.2-    020208 118  1.3+  0.7-
020208 704  0.5-  0.6+    020208 704 (2.2-  1.5+)   020209 966  0.4-  0.6-
020208 704  0.6-  0.1+    020208 704  0.4-  0.2+    020209 966  0.8-  0.7+
020208 704  1.9-  1.2+    020208 704  0.9-  0.1-    020209 854  1.1+  1.1+
020208 704  0.5+  0.9-    020208 704  0.5-  0.1+    020209 854  1.5-  0.2+
020208 704  0.3-  0.6+    020208 704  0.3-  1.0-    020209 854  1.5+  0.2-
020208 704  0.1+  0.2-    020208 620  0.2-  0.2+    020209 854  1.0-  1.7-

Ephemeris:
2002 CC14                a,e,i = 0.82, 0.40, 13                  q = 0.4894
Date    TT    R. A. (2000) Decl.     Delta      r     Elong.  Phase     V
2002 01 31    17 09.09   -62 17.5    0.034    0.968    59.1   119.2    22.4
2002 02 01    16 25.86   -64 06.6    0.027    0.974    65.0   113.6    21.5
2002 02 02    15 09.98   -65 07.3    0.021    0.980    73.8   105.0    20.5
2002 02 03    13 09.66   -61 24.0    0.016    0.985    88.3    90.7    19.2
2002 02 04    11 07.96   -45 11.6    0.013    0.991   112.9    66.5    17.8
2002 02 05    09 50.38   -17 33.4    0.012    0.996   145.2    34.4    16.9
2002 02 06    09 06.32   +05 32.0    0.016    1.001   169.4    10.4    16.6
2002 02 07    08 39.80   +19 01.9    0.021    1.007   169.4    10.4    17.3
2002 02 08    08 22.55   +26 45.4    0.027    1.012   161.2    18.3    18.1
2002 02 09    08 10.60   +31 30.7    0.033    1.017   155.4    23.8    18.8
2002 02 10    08 01.92   +34 39.6    0.040    1.022   151.1    27.8    19.3
2002 02 11    07 55.39   +36 52.2    0.046    1.027   147.8    30.8    19.7
2002 02 12    07 50.35   +38 29.4    0.053    1.031   145.2    33.1    20.1
2002 02 13    07 46.39   +39 43.2    0.060    1.036   143.0    35.0    20.4
2002 02 14    07 43.24   +40 40.6    0.067    1.040   141.0    36.6    20.7
2002 02 15    07 40.71   +41 26.3    0.074    1.045   139.4    38.0    21.0
2002 02 16    07 38.67   +42 03.2    0.081    1.049   137.8    39.2    21.2
2002 02 17    07 37.03   +42 33.3    0.088    1.054   136.4    40.3    21.4
2002 02 18    07 35.71   +42 58.3    0.095    1.058   135.1    41.2    21.6
2002 02 19    07 34.67   +43 19.0    0.102    1.062   133.9    42.1    21.8
2002 02 20    07 33.86   +43 36.3    0.109    1.066   132.8    42.9    22.0
2002 02 21    07 33.26   +43 50.8    0.116    1.070   131.7    43.7    22.2
2002 02 22    07 32.83   +44 02.9    0.123    1.073   130.6    44.4    22.3
2002 02 23    07 32.55   +44 13.1    0.130    1.077   129.6    45.0    22.5
2002 02 24    07 32.40   +44 21.6    0.137    1.081   128.7    45.6    22.6
2002 02 25    07 32.38   +44 28.6    0.145    1.084   127.7    46.2    22.7

Brian G. Marsden             (C) Copyright 2002 MPC           M.P.E.C. 2002-C53

Read MPEC 2002-C52 Read MPEC 2002-C54


Our Web policy. Index to the CBAT/MPC/ICQ pages.


Valid HTML 4.01!